SCP
-0 -0 -0 -0 -0 -0 -0 -0 0 0 0 0 0 0 0 0 0 -0 -0 0 0 -0 0 0 -0 -0 0 0 0 0 0 -0 -0 0 0 0 0 -0 0 0 0 0 -0 0 0 0 0
-0 -0 -0 -0 -0 -0 -0 -0 0 0 0 0 0 0 0 0 0 0 0 0 0 0 0 0 0 0 0 0 0 0 0 0 0 0 0 0 0 -0 0 0 0 0 0 0 0 0 -0
-0 -0 -0 -0 -0 -0 -0 -0 -0 -0 -0 -0 -0 -0 0 0 0 0 0 0 0 0 0 0 0 0 0 0 0 -0 0 0 0 0 0 0 0 0 0 0 -0 0 0 0 -0 0 -0
-0 -0 -0 -0 -0 -0 -0 -0 -0 -0 -0 -0 -0 -0 -0 -0 -0 0 0 0 0 0 0 0 0 0 -0 0 0 0 0 0 0 0 0 0 0 -0 -0 0 -0 -0 -0 -0 -0 -0 0
-0 -0 -0 -0 -0 -0 -0 -0 -0 -0 -0 -0 -0 -0 -0 -0 -0 -0 -0 -0 -0 0 0 0 0 0 0 0 0 0 0 0 0 0 0 0 0 0 0 0 -0 -0 -0 0 0 -0 0
-0 -0 -0 -0 -0 -0 -0 -0 -0 -0 -0 -0 -0 -0 -0 -0 -0 -0 -0 -0 0 0 0 0 0 0 0 0 0 0 0 0 0 0 0 0 0 0 0 0 0 -0 0 0 -0 0 0
-0 -0 -0 -0 -0 -0 -0 -0 -0 -0 -0 -0 -0 -0 -0 -0 -0 -0 -0 -0 -0 -0 0 -0 -0 0 0 0 0 0 0 0 0 0 0 0 0 0 0 0 0 0 0 0 -0 0 0
-0 -0 -0 -0 -0 -0 -0 -0 -0 -0 -0 -0 -0 -0 -0 -0 -0 -0 0 0 -0 0 -0 -0 0 0 0 0 0 0 0 0 0 0 0 0 0 0 0 0 0 0 -0 -0 0 0 0
-0 -0 -0 -0 -0 -0 -0 -0 -0 -0 -0 -0 -0 -0 -0 -0 -0 0 0 -0 0 -0 -0 -0 0 0 0 0 -0 0 0 0 0 0 0 0 0 0 0 0 0 0 -0 -0 -0 0 0
-0 -0 -0 -0 -0 -0 -0 -0 -0 -0 -0 -0 -0 -0 -0 -0 0 0 0 0 -0 -0 -0 -0 0 0 0 -0 -0 0 0 0 0 0 0 0 0 0 0 0 0 0 -0 -0 -0 0 -0
-0 -0 -0 -0 -0 -0 -0 -0 -0 -0 -0 -0 -0 -0 -0 0 0 0 0 0 0 -0 -0 0 -0 -0 0 0 -0 0 -0 0 0 0 0 0 0 0 0 0 0 0 0 0 -0 0 0
-0 -0 -0 -0 -0 -0 -0 -0 -0 -0 -0 -0 -0 -0 -0 0 0 0 0 0 0 0 0 0 0 0 0 -0 0 0 -0 0 0 0 0 0 0 0 0 0 0 0 0 0 0 0 0
-0 -0 -0 -0 -0 -0 -0 -0 -0 -0 -0 -0 -0 -0 0 0 0 0 0 0 0 -0 -0 -0 -0 0 0 0 0 -0 0 0 0 0 0 0 0 0 0 0 0 0 0 0 0 0 0
-0 -0 -0 -0 -0 -0 -0 -0 -0 -0 -0 -0 -0 0 0 0 0 0 0 0 -0 -0 -0 -0 -0 -0 -0 0 0 0 0 0 0 -0 -0 0 0 0 0 0 0 0 0 0 0 0 0
-0 -0 -0 -0 -0 -0 -0 -0 -0 -0 -0 -0 -0 -0 0 0 0 0 -0 -0 0 -0 -0 -0 0 -0 -0 -0 0 0 -0 -0 0 0 -0 0 0 0 -0 -0 0 0 0 0 0 0 0
-0 -0 -0 -0 -0 -0 -0 -0 -0 -0 -0 -0 -0 -0 -0 0 0 0 0 0 0 0 -0 0 -0 -0 -0 -0 -0 0 0 0 0 0 0 0 0 -0 -0 0 0 0 0 0 0 0 0
-0 -0 -0 -0 -0 -0 -0 -0 -0 -0 -0 -0 -0 0 -0 0 0 0 0 0 -0 0 0 -0 0 0 0 0 0 0 0 0 -0 -0 0 -0 0 -0 0 0 0 0 0 0 0 0 0
-0 -0 -0 -0 -0 -0 -0 -0 -0 -0 -0 -0 0 0 -0 -0 0 0 0 0 -0 0 0 0 0 0 0 0 0 0 0 0 0 0 0 -0 0 -0 -0 0 0 0 0 0 0 0 0
-0 -0 -0 -0 -0 -0 -0 -0 -0 -0 -0 0 0 0 -0 -0 0 0 0 0 -0 0 0 0 0 0 0 0 0 0 0 0 0 0 0 0 0 0 0 -0 0 0 0 0 0 0 0
-0 -0 -0 -0 -0 -0 -0 -0 -0 -0 -0 0 0 0 0 0 0 0 0 0 0 0 0 0 0 0 0 0 0 0 0 0 0 0 -0 0 0 0 0 0 -0 0 0 0 0 0 0
0 0 0 -0 -0 -0 -0 -0 -0 -0 -0 0 0 0 0 0 0 0 0 0 0 0 0 0 0 0 0 0 0 0 0 0 0 0 0 0 0 0 0 0 -0 0 0 0 0 0 0
0 0 0 0 0 0 0 -0 -0 -0 -0 0 0 0 0 0 0 0 0 0 0 0 0 0 0 0 0 0 0 0 0 -0 -0 0 0 0 0 0 0 0 0 -0 0 0 0 0 0
0 0 0 0 0 0 0 0 0 -0 0 0 0 0 0 0 0 0 0 0 0 0 0 0 0 0 0 0 0 0 0 0 0 0 0 0 0 0 0 0 0 0 0 0 0 0 0
0 0 0 0 0 0 0 0 0 0 0 0 0 0 0 0 0 0 0 0 0 0 0 0 0 0 0 0 0 0 0 0 0 0 0 0 0 0 0 0 0 0 0 0 0 0 0
0 0 0 0 0 0 0 0 0 0 0 0 0 0 0 0 0 0 0 0 0 0 0 0 0 0 0 0 0 0 0 0 0 0 0 0 0 0 0 0 0 0 0 0 0 0 0
0 0 0 0 0 0 0 0 0 0 0 0 0 0 0 0 0 0 0 0 0 0 0 0 0 0 0 0 0 0 0 0 0 0 0 0 0 0 0 0 0 0 0 0 0 0 0
0 0 0 0 0 0 0 0 0 0 0 0 0 0 0 0 0 0 0 0 0 0 0 0 0 0 0 0 0 0 0 0 0 0 0 0 0 0 0 0 0 0 0 0 0 0 0
0 0 0 0 0 0 0 0 0 0 0 0 0 0 0 0 0 0 0 0 0 0 0 0 0 0 0 0 0 0 0 0 0 0 0 0 0 0 0 0 0 0 0 0 0 0 0
0 0 0 0 0 0 0 0 0 0 0 0 0 0 0 0 0 0 0 0 0 0 0 0 0 0 0 0 0 0 0 0 0 0 0 0 0 0 0 0 0 0 0 0 0 0 0
Wind_Speed_500mb
29 29 29 29 30 31 31 33 33 34 33 33 33 33 31 28 25 23 22 23 21 20 22 21 19 17 17 10 15 12 9 12 27 30 28 31 29 16 10 7 5 2 4 18 13 20 27
30 31 31 32 33 33 34 34 35 36 37 37 35 33 32 29 24 21 20 19 19 19 18 19 18 17 14 8 9 5 9 15 23 28 28 32 16 11 11 2 6 7 15 2 10 12 18
32 33 34 34 34 35 35 36 37 38 39 40 38 35 31 27 22 19 16 16 16 17 15 16 16 17 20 30 7 10 8 11 11 9 15 19 15 5 8 3 3 8 13 14 7 9 4
33 34 35 37 37 38 39 40 40 41 40 39 37 33 28 23 19 15 13 13 12 14 14 11 12 15 16 7 18 36 24 23 25 25 23 23 15 2 9 9 9 9 7 11 6 15 11
35 36 37 39 40 40 41 41 41 40 39 39 37 32 26 21 15 12 11 10 9 11 12 8 10 8 15 7 22 29 29 29 18 23 27 25 21 7 16 6 5 11 6 2 11 10 8
36 38 40 41 42 42 42 42 42 39 38 38 36 30 23 17 13 10 12 10 5 6 5 9 14 7 11 6 15 17 23 28 23 22 18 7 8 7 6 7 9 10 6 11 11 14 11
37 39 41 42 43 43 43 43 43 40 38 38 35 29 21 14 12 16 17 6 7 2 22 19 9 13 31 20 7 8 13 23 27 18 4 6 9 8 19 14 14 10 8 13 16 13 9
38 40 42 43 45 46 46 45 44 40 37 36 33 25 19 12 11 17 21 17 18 15 18 25 29 38 34 29 12 7 7 12 10 8 2 11 8 16 9 12 14 8 15 15 16 7 4
38 40 42 44 46 48 48 47 45 40 35 33 30 22 14 10 8 11 13 20 15 20 3 15 11 19 15 6 11 23 13 13 6 5 7 11 16 3 8 6 8 8 16 14 13 9 7
39 41 43 46 48 50 50 49 46 40 34 30 26 18 7 11 4 10 12 14 18 19 9 11 6 5 13 8 9 19 21 11 2 18 14 10 9 5 3 10 14 11 22 33 21 6 9
40 41 44 46 49 51 52 51 49 42 34 28 24 16 6 5 2 5 12 14 13 9 10 3 6 4 7 12 12 12 22 22 15 13 12 16 6 7 6 14 13 22 5 19 22 7 9
42 43 45 47 50 53 54 53 50 45 36 28 23 16 8 7 7 8 10 14 9 11 7 8 4 5 3 5 5 8 8 10 5 10 3 11 4 7 12 10 16 3 6 16 11 9 3
43 45 47 48 51 54 56 55 52 48 38 27 19 13 8 10 9 12 18 11 10 10 9 16 8 4 6 8 6 5 6 7 4 7 8 12 9 10 5 8 4 12 13 6 6 6 10
44 47 49 50 52 55 57 58 54 50 40 22 16 14 5 5 7 9 18 9 16 3 7 9 9 7 4 3 5 3 7 10 5 9 6 6 13 11 13 4 8 8 15 11 7 6 10
46 48 50 52 54 56 58 59 55 51 44 21 12 6 3 5 1 9 6 12 6 5 7 12 9 16 17 12 5 8 11 7 5 3 9 6 8 11 2 6 2 4 2 5 14 7 3
47 49 50 52 55 56 59 61 58 51 45 26 15 4 6 5 4 13 10 6 7 10 3 10 10 7 12 16 10 8 4 2 3 10 7 1 7 1 12 15 16 12 5 5 8 4 5
46 48 50 52 54 56 58 61 61 51 42 26 12 5 0 6 7 9 5 10 9 14 7 9 3 10 4 9 8 9 6 6 3 5 17 6 6 15 4 6 5 13 12 11 10 7 8
45 46 49 52 53 55 57 59 61 54 44 24 10 6 14 9 9 4 1 5 10 6 10 5 9 5 5 6 13 9 6 5 24 3 6 4 11 4 15 2 10 6 4 8 9 7 4
43 45 47 50 52 54 55 56 57 52 45 36 12 8 18 12 6 9 15 10 5 11 11 7 11 8 7 8 9 7 10 18 39 12 6 1 6 7 20 13 9 11 9 6 8 6 2
41 43 44 47 51 53 54 53 53 49 37 27 10 7 11 17 13 2 8 10 13 17 14 11 7 11 9 11 13 4 12 10 21 15 26 8 7 12 11 14 6 9 11 7 7 6 5
38 41 43 44 46 51 53 52 51 47 35 19 13 5 8 7 10 10 3 10 10 12 11 35 13 12 2 9 5 4 4 10 13 13 11 8 3 9 12 13 7 8 9 10 2 8 7
37 40 43 44 44 45 50 51 49 47 36 25 10 10 10 7 15 9 13 13 12 11 9 8 7 7 10 4 6 5 2 3 10 7 7 6 5 1 9 8 2 7 14 10 5 8 11
40 40 41 43 43 42 43 46 48 46 41 21 18 11 6 10 10 6 5 6 9 11 3 12 5 2 5 11 20 19 19 18 22 13 8 4 8 5 10 10 11 10 10 8 4 1 4
45 43 41 41 40 39 38 38 40 40 38 31 31 12 8 5 3 2 6 5 6 7 4 8 17 7 12 20 17 17 26 26 24 19 24 12 10 4 7 7 2 15 10 7 6 4 8
49 47 45 41 38 34 34 34 31 31 27 18 24 15 8 4 6 10 14 9 10 13 8 2 12 23 24 8 8 11 12 16 9 4 11 13 11 4 5 5 11 13 8 5 9 2 3
52 49 46 42 37 34 30 30 29 25 21 8 15 19 8 5 8 6 8 7 3 6 13 5 17 21 13 8 7 4 4 6 12 19 12 14 11 9 6 7 11 10 15 20 10 1 5
54 51 47 43 39 35 32 28 26 25 20 14 11 17 11 9 9 5 7 7 7 1 3 9 17 13 16 5 4 6 7 5 6 7 6 7 6 9 5 8 12 12 25 13 6 10 15
57 53 50 49 45 40 36 32 27 23 20 15 10 19 15 11 37 24 5 12 11 5 4 9 11 7 8 8 4 4 4 6 4 7 6 5 3 5 3 5 9 20 10 7 7 5 5
57 56 55 53 49 46 40 36 33 28 23 19 14 18 21 20 25 45 53 53 56 60 43 13 5 5 7 7 1 2 2 2 5 6 6 5 11 6 13 10 11 8 7 11 12 8 8
Wind_Direction_500mb
18 14 9 5 1 358 354 351 348 346 342 337 331 327 322 316 310 305 300 297 294 286 285 289 291 293 302 290 260 254 316 176 183 190 199 190 190 194 221 204 125 215 283 129 32 56 25
17 13 9 5 1 358 354 352 349 346 342 337 334 329 322 317 311 304 299 296 292 290 289 287 286 285 285 271 271 266 201 202 200 209 218 205 225 201 149 168 180 271 240 171 87 93 88
16 12 9 4 1 358 355 353 350 347 344 341 338 333 327 320 313 308 303 296 292 291 290 287 284 278 263 248 238 155 273 264 263 262 287 250 234 231 153 47 156 241 342 351 87 81 120
15 12 8 4 2 360 357 354 353 350 348 346 343 339 335 330 324 318 308 301 296 288 288 288 277 274 256 246 232 252 259 249 244 252 268 280 286 338 150 134 23 1 71 352 147 150 207
15 11 8 5 3 1 358 355 354 352 352 350 348 345 342 339 336 335 327 324 308 287 290 289 273 251 259 214 232 220 228 231 237 254 272 289 282 157 122 120 17 23 283 207 292 184 136
14 12 9 7 4 2 358 356 355 354 354 353 351 350 349 352 6 19 1 348 343 283 293 282 251 283 234 151 21 217 224 234 239 268 273 239 145 87 59 98 234 246 241 266 254 211 182
14 12 10 8 5 3 0 358 356 354 354 355 356 357 1 11 54 40 39 44 8 337 296 249 265 272 272 320 330 191 178 212 237 257 217 37 83 215 221 198 220 200 210 229 268 172 138
14 12 9 8 6 4 2 359 357 354 353 355 358 2 5 30 63 52 54 59 28 335 301 290 258 259 268 280 308 214 170 167 161 208 63 17 232 232 221 222 235 211 226 235 277 132 251
13 10 9 7 6 5 2 360 357 354 351 353 357 3 13 45 39 39 75 25 347 334 318 294 247 251 263 221 221 258 202 145 141 170 176 169 247 51 183 212 177 237 208 225 213 333 303
11 9 8 6 5 3 3 1 358 355 350 349 353 357 -0 346 58 79 24 360 351 340 55 287 263 266 218 227 268 268 248 178 112 205 157 229 280 228 315 265 170 246 210 242 242 112 253
10 7 6 4 2 1 1 1 359 355 349 343 343 345 312 270 289 342 328 322 319 332 58 253 216 301 204 179 322 28 178 161 181 188 105 254 267 297 246 233 155 232 167 208 232 208 62
10 7 4 2 360 359 359 359 359 356 352 342 338 338 326 232 267 300 316 321 306 40 11 348 331 1 62 261 281 326 186 186 144 125 348 249 254 195 224 251 199 282 120 32 44 86 87
11 8 5 2 359 358 357 357 359 356 357 348 342 340 312 238 280 286 313 321 39 79 333 330 291 226 191 267 337 144 343 56 113 48 359 342 300 285 238 351 354 75 57 343 347 12 216
10 8 6 3 359 357 356 355 358 358 359 359 338 325 292 240 233 282 319 59 59 290 279 289 327 27 16 277 267 69 64 9 27 92 95 103 347 5 327 282 257 226 154 149 214 211 252
9 7 5 3 1 359 357 354 356 1 356 8 354 326 170 153 58 327 336 50 207 259 257 341 355 50 344 351 1 78 36 26 273 339 115 111 292 312 186 280 26 350 277 167 101 8 43
6 6 4 2 1 1 359 356 355 2 357 359 5 43 175 185 274 335 64 238 250 240 8 52 56 71 20 333 48 52 14 293 21 27 145 271 357 261 294 23 10 81 196 23 14 132 276
2 4 4 2 1 1 2 359 355 1 2 358 13 87 343 222 273 358 109 238 276 304 16 70 35 41 64 344 32 28 339 305 14 48 62 106 79 301 19 80 321 352 11 44 112 105 152
358 0 2 2 0 1 3 3 358 358 6 9 5 53 33 145 9 25 277 235 300 312 53 79 104 96 74 21 21 53 75 329 341 133 64 317 132 284 251 356 326 5 67 114 104 288 80
356 358 360 1 1 1 3 4 2 1 5 7 8 5 30 174 63 332 313 301 299 354 16 29 35 34 25 42 96 36 0 347 31 50 51 114 48 5 344 4 1 35 342 81 102 78 231
352 355 357 359 -0 1 3 5 6 4 6 10 11 20 18 67 77 86 328 326 328 39 66 64 31 71 68 33 11 71 355 341 1 39 38 84 102 147 178 226 231 312 320 65 97 82 220
353 356 356 357 358 359 2 3 6 8 9 16 31 49 23 340 334 351 324 343 359 14 38 29 27 31 26 36 39 62 343 331 330 15 35 76 174 194 228 232 219 256 276 334 4 203 176
338 345 353 354 355 355 359 3 5 10 16 40 45 19 358 346 320 359 2 344 0 340 44 4 73 341 14 130 174 281 127 193 242 335 58 21 267 263 271 262 359 255 285 294 250 233 243
319 327 336 344 350 352 354 1 4 9 21 43 40 17 354 351 353 57 317 310 341 331 3 41 292 73 324 229 211 234 246 241 229 199 151 163 150 90 274 345 334 333 250 191 254 283 227
301 308 316 326 336 345 348 352 3 8 16 26 22 13 354 285 30 269 307 312 6 347 248 15 30 46 331 300 278 271 282 276 253 238 186 154 121 123 255 4 295 241 258 230 152 98 63
288 294 301 307 318 328 337 343 350 4 8 9 16 19 353 295 271 306 334 329 324 350 6 281 3 341 329 322 36 9 336 356 331 81 198 185 130 156 163 200 282 312 353 37 203 191 324
281 285 290 293 300 310 317 328 337 346 3 338 343 4 343 318 245 309 312 316 293 326 339 306 332 345 352 78 72 122 261 274 319 328 60 73 73 127 136 185 233 239 292 327 141 323 273
277 276 279 285 287 295 298 304 317 330 341 349 304 331 343 291 285 285 271 293 303 357 247 312 339 339 8 68 116 170 245 251 270 291 330 359 28 179 194 232 285 264 298 353 193 235 178
275 276 271 272 276 280 285 286 291 305 322 331 300 316 331 282 287 271 268 232 262 258 146 323 349 346 36 63 125 246 190 259 335 268 294 183 137 235 132 194 273 343 13 94 231 319 272
271 271 271 270 270 269 271 271 275 281 294 309 301 308 310 279 272 286 279 278 267 265 263 246 249 222 209 96 187 142 300 318 179 283 307 260 184 206 174 219 237 347 70 64 50 51 16
Wind_Speed_850mb
29 29 29 29 30 31 31 33 33 34 33 33 33 33 31 28 25 23 22 23 21 20 22 21 19 17 17 10 15 12 9 12 27 30 28 31 29 16 10 7 5 2 4 18 13 20 27
30 31 31 32 33 33 34 34 35 36 37 37 35 33 32 29 24 21 20 19 19 19 18 19 18 17 14 8 9 5 9 15 23 28 28 32 16 11 11 2 6 7 15 2 10 12 18
32 33 34 34 34 35 35 36 37 38 39 40 38 35 31 27 22 19 16 16 16 17 15 16 16 17 20 30 7 10 8 11 11 9 15 19 15 5 8 3 3 8 13 14 7 9 4
33 34 35 37 37 38 39 40 40 41 40 39 37 33 28 23 19 15 13 13 12 14 14 11 12 15 16 7 18 36 24 23 25 25 23 23 15 2 9 9 9 9 7 11 6 15 11
35 36 37 39 40 40 41 41 41 40 39 39 37 32 26 21 15 12 11 10 9 11 12 8 10 8 15 7 22 29 29 29 18 23 27 25 21 7 16 6 5 11 6 2 11 10 8
36 38 40 41 42 42 42 42 42 39 38 38 36 30 23 17 13 10 12 10 5 6 5 9 14 7 11 6 15 17 23 28 23 22 18 7 8 7 6 7 9 10 6 11 11 14 11
37 39 41 42 43 43 43 43 43 40 38 38 35 29 21 14 12 16 17 6 7 2 22 19 9 13 31 20 7 8 13 23 27 18 4 6 9 8 19 14 14 10 8 13 16 13 9
38 40 42 43 45 46 46 45 44 40 37 36 33 25 19 12 11 17 21 17 18 15 18 25 29 38 34 29 12 7 7 12 10 8 2 11 8 16 9 12 14 8 15 15 16 7 4
38 40 42 44 46 48 48 47 45 40 35 33 30 22 14 10 8 11 13 20 15 20 3 15 11 19 15 6 11 23 13 13 6 5 7 11 16 3 8 6 8 8 16 14 13 9 7
39 41 43 46 48 50 50 49 46 40 34 30 26 18 7 11 4 10 12 14 18 19 9 11 6 5 13 8 9 19 21 11 2 18 14 10 9 5 3 10 14 11 22 33 21 6 9
40 41 44 46 49 51 52 51 49 42 34 28 24 16 6 5 2 5 12 14 13 9 10 3 6 4 7 12 12 12 22 22 15 13 12 16 6 7 6 14 13 22 5 19 22 7 9
42 43 45 47 50 53 54 53 50 45 36 28 23 16 8 7 7 8 10 14 9 11 7 8 4 5 3 5 5 8 8 10 5 10 3 11 4 7 12 10 16 3 6 16 11 9 3
43 45 47 48 51 54 56 55 52 48 38 27 19 13 8 10 9 12 18 11 10 10 9 16 8 4 6 8 6 5 6 7 4 7 8 12 9 10 5 8 4 12 13 6 6 6 10
44 47 49 50 52 55 57 58 54 50 40 22 16 14 5 5 7 9 18 9 16 3 7 9 9 7 4 3 5 3 7 10 5 9 6 6 13 11 13 4 8 8 15 11 7 6 10
46 48 50 52 54 56 58 59 55 51 44 21 12 6 3 5 1 9 6 12 6 5 7 12 9 16 17 12 5 8 11 7 5 3 9 6 8 11 2 6 2 4 2 5 14 7 3
47 49 50 52 55 56 59 61 58 51 45 26 15 4 6 5 4 13 10 6 7 10 3 10 10 7 12 16 10 8 4 2 3 10 7 1 7 1 12 15 16 12 5 5 8 4 5
46 48 50 52 54 56 58 61 61 51 42 26 12 5 0 6 7 9 5 10 9 14 7 9 3 10 4 9 8 9 6 6 3 5 17 6 6 15 4 6 5 13 12 11 10 7 8
45 46 49 52 53 55 57 59 61 54 44 24 10 6 14 9 9 4 1 5 10 6 10 5 9 5 5 6 13 9 6 5 24 3 6 4 11 4 15 2 10 6 4 8 9 7 4
43 45 47 50 52 54 55 56 57 52 45 36 12 8 18 12 6 9 15 10 5 11 11 7 11 8 7 8 9 7 10 18 39 12 6 1 6 7 20 13 9 11 9 6 8 6 2
41 43 44 47 51 53 54 53 53 49 37 27 10 7 11 17 13 2 8 10 13 17 14 11 7 11 9 11 13 4 12 10 21 15 26 8 7 12 11 14 6 9 11 7 7 6 5
38 41 43 44 46 51 53 52 51 47 35 19 13 5 8 7 10 10 3 10 10 12 11 35 13 12 2 9 5 4 4 10 13 13 11 8 3 9 12 13 7 8 9 10 2 8 7
37 40 43 44 44 45 50 51 49 47 36 25 10 10 10 7 15 9 13 13 12 11 9 8 7 7 10 4 6 5 2 3 10 7 7 6 5 1 9 8 2 7 14 10 5 8 11
40 40 41 43 43 42 43 46 48 46 41 21 18 11 6 10 10 6 5 6 9 11 3 12 5 2 5 11 20 19 19 18 22 13 8 4 8 5 10 10 11 10 10 8 4 1 4
45 43 41 41 40 39 38 38 40 40 38 31 31 12 8 5 3 2 6 5 6 7 4 8 17 7 12 20 17 17 26 26 24 19 24 12 10 4 7 7 2 15 10 7 6 4 8
49 47 45 41 38 34 34 34 31 31 27 18 24 15 8 4 6 10 14 9 10 13 8 2 12 23 24 8 8 11 12 16 9 4 11 13 11 4 5 5 11 13 8 5 9 2 3
52 49 46 42 37 34 30 30 29 25 21 8 15 19 8 5 8 6 8 7 3 6 13 5 17 21 13 8 7 4 4 6 12 19 12 14 11 9 6 7 11 10 15 20 10 1 5
54 51 47 43 39 35 32 28 26 25 20 14 11 17 11 9 9 5 7 7 7 1 3 9 17 13 16 5 4 6 7 5 6 7 6 7 6 9 5 8 12 12 25 13 6 10 15
57 53 50 49 45 40 36 32 27 23 20 15 10 19 15 11 37 24 5 12 11 5 4 9 11 7 8 8 4 4 4 6 4 7 6 5 3 5 3 5 9 20 10 7 7 5 5
57 56 55 53 49 46 40 36 33 28 23 19 14 18 21 20 25 45 53 53 56 60 43 13 5 5 7 7 1 2 2 2 5 6 6 5 11 6 13 10 11 8 7 11 12 8 8
Wind_Direction_850mb
18 14 9 5 1 358 354 351 348 346 342 337 331 327 322 316 310 305 300 297 294 286 285 289 291 293 302 290 260 254 316 176 183 190 199 190 190 194 221 204 125 215 283 129 32 56 25
17 13 9 5 1 358 354 352 349 346 342 337 334 329 322 317 311 304 299 296 292 290 289 287 286 285 285 271 271 266 201 202 200 209 218 205 225 201 149 168 180 271 240 171 87 93 88
16 12 9 4 1 358 355 353 350 347 344 341 338 333 327 320 313 308 303 296 292 291 290 287 284 278 263 248 238 155 273 264 263 262 287 250 234 231 153 47 156 241 342 351 87 81 120
15 12 8 4 2 360 357 354 353 350 348 346 343 339 335 330 324 318 308 301 296 288 288 288 277 274 256 246 232 252 259 249 244 252 268 280 286 338 150 134 23 1 71 352 147 150 207
15 11 8 5 3 1 358 355 354 352 352 350 348 345 342 339 336 335 327 324 308 287 290 289 273 251 259 214 232 220 228 231 237 254 272 289 282 157 122 120 17 23 283 207 292 184 136
14 12 9 7 4 2 358 356 355 354 354 353 351 350 349 352 6 19 1 348 343 283 293 282 251 283 234 151 21 217 224 234 239 268 273 239 145 87 59 98 234 246 241 266 254 211 182
14 12 10 8 5 3 0 358 356 354 354 355 356 357 1 11 54 40 39 44 8 337 296 249 265 272 272 320 330 191 178 212 237 257 217 37 83 215 221 198 220 200 210 229 268 172 138
14 12 9 8 6 4 2 359 357 354 353 355 358 2 5 30 63 52 54 59 28 335 301 290 258 259 268 280 308 214 170 167 161 208 63 17 232 232 221 222 235 211 226 235 277 132 251
13 10 9 7 6 5 2 360 357 354 351 353 357 3 13 45 39 39 75 25 347 334 318 294 247 251 263 221 221 258 202 145 141 170 176 169 247 51 183 212 177 237 208 225 213 333 303
11 9 8 6 5 3 3 1 358 355 350 349 353 357 -0 346 58 79 24 360 351 340 55 287 263 266 218 227 268 268 248 178 112 205 157 229 280 228 315 265 170 246 210 242 242 112 253
10 7 6 4 2 1 1 1 359 355 349 343 343 345 312 270 289 342 328 322 319 332 58 253 216 301 204 179 322 28 178 161 181 188 105 254 267 297 246 233 155 232 167 208 232 208 62
10 7 4 2 360 359 359 359 359 356 352 342 338 338 326 232 267 300 316 321 306 40 11 348 331 1 62 261 281 326 186 186 144 125 348 249 254 195 224 251 199 282 120 32 44 86 87
11 8 5 2 359 358 357 357 359 356 357 348 342 340 312 238 280 286 313 321 39 79 333 330 291 226 191 267 337 144 343 56 113 48 359 342 300 285 238 351 354 75 57 343 347 12 216
10 8 6 3 359 357 356 355 358 358 359 359 338 325 292 240 233 282 319 59 59 290 279 289 327 27 16 277 267 69 64 9 27 92 95 103 347 5 327 282 257 226 154 149 214 211 252
9 7 5 3 1 359 357 354 356 1 356 8 354 326 170 153 58 327 336 50 207 259 257 341 355 50 344 351 1 78 36 26 273 339 115 111 292 312 186 280 26 350 277 167 101 8 43
6 6 4 2 1 1 359 356 355 2 357 359 5 43 175 185 274 335 64 238 250 240 8 52 56 71 20 333 48 52 14 293 21 27 145 271 357 261 294 23 10 81 196 23 14 132 276
2 4 4 2 1 1 2 359 355 1 2 358 13 87 343 222 273 358 109 238 276 304 16 70 35 41 64 344 32 28 339 305 14 48 62 106 79 301 19 80 321 352 11 44 112 105 152
358 0 2 2 0 1 3 3 358 358 6 9 5 53 33 145 9 25 277 235 300 312 53 79 104 96 74 21 21 53 75 329 341 133 64 317 132 284 251 356 326 5 67 114 104 288 80
356 358 360 1 1 1 3 4 2 1 5 7 8 5 30 174 63 332 313 301 299 354 16 29 35 34 25 42 96 36 0 347 31 50 51 114 48 5 344 4 1 35 342 81 102 78 231
352 355 357 359 -0 1 3 5 6 4 6 10 11 20 18 67 77 86 328 326 328 39 66 64 31 71 68 33 11 71 355 341 1 39 38 84 102 147 178 226 231 312 320 65 97 82 220
353 356 356 357 358 359 2 3 6 8 9 16 31 49 23 340 334 351 324 343 359 14 38 29 27 31 26 36 39 62 343 331 330 15 35 76 174 194 228 232 219 256 276 334 4 203 176
338 345 353 354 355 355 359 3 5 10 16 40 45 19 358 346 320 359 2 344 0 340 44 4 73 341 14 130 174 281 127 193 242 335 58 21 267 263 271 262 359 255 285 294 250 233 243
319 327 336 344 350 352 354 1 4 9 21 43 40 17 354 351 353 57 317 310 341 331 3 41 292 73 324 229 211 234 246 241 229 199 151 163 150 90 274 345 334 333 250 191 254 283 227
301 308 316 326 336 345 348 352 3 8 16 26 22 13 354 285 30 269 307 312 6 347 248 15 30 46 331 300 278 271 282 276 253 238 186 154 121 123 255 4 295 241 258 230 152 98 63
288 294 301 307 318 328 337 343 350 4 8 9 16 19 353 295 271 306 334 329 324 350 6 281 3 341 329 322 36 9 336 356 331 81 198 185 130 156 163 200 282 312 353 37 203 191 324
281 285 290 293 300 310 317 328 337 346 3 338 343 4 343 318 245 309 312 316 293 326 339 306 332 345 352 78 72 122 261 274 319 328 60 73 73 127 136 185 233 239 292 327 141 323 273
277 276 279 285 287 295 298 304 317 330 341 349 304 331 343 291 285 285 271 293 303 357 247 312 339 339 8 68 116 170 245 251 270 291 330 359 28 179 194 232 285 264 298 353 193 235 178
275 276 271 272 276 280 285 286 291 305 322 331 300 316 331 282 287 271 268 232 262 258 146 323 349 346 36 63 125 246 190 259 335 268 294 183 137 235 132 194 273 343 13 94 231 319 272
271 271 271 270 270 269 271 271 275 281 294 309 301 308 310 279 272 286 279 278 267 265 263 246 249 222 209 96 187 142 300 318 179 283 307 260 184 206 174 219 237 347 70 64 50 51 16